Regional Weather Roundup
Issued by NWS

Home | Current Version | Previous Version | Graphics & Text | Print | Product List | Glossary On
Versions: 1 2 3 4 5 6 7 8 9 10 11 12 13 14 15 16 17 18 19 20 21 22 23 24 25 26 27 28 29 30 31 32 33 34 35 36 37 38 39 40 41 42 43 44 45 46 47 48 49 50
207
ASUS43 KDTX 231510
RWRMI
MICHIGAN HOURLY REGIONAL WEATHER ROUNDUP
NATIONAL WEATHER SERVICE DETROIT/PONTIAC MI
1100 AM EDT MON OCT 23 2017

NOTE: "FAIR" INDICATES FEW OR NO CLOUDS BELOW 12,000 FEET WITH NO
SIGNIFICANT WEATHER AND/OR OBSTRUCTION TO VISIBILITY.

MIZ047>049-052>055-059>063-066>070-074>076-081>083-231600-
SOUTHEAST LOWER MICHIGAN

CITY           SKY/WX    TMP DP  RH WIND       PRES   REMARKS
ADRIAN         CLOUDY    63  54  72 SE3       29.82F
ALMA           RAIN      56  55  96 NW3       29.82F
ANN ARBOR      CLOUDY    63  54  72 E3        29.83F
BAD AXE        CLOUDY    63  53  69 S6        29.84F
CARO           CLOUDY    63  51  64 SE6       29.82F
DETROIT CITY   CLOUDY    66  54  65 S14       29.85F
DETROIT        CLOUDY    65  55  70 SE7       29.84F
FLINT          CLOUDY    63  52  67 S9        29.82F
GROSSE ILE     CLOUDY    64  56  74 S9        29.84F
HILLSDALE      LGT RAIN  61  52  72 SE6       29.81S
HOWELL         LGT RAIN  60  54  79 SE6       29.82F

CITY           SKY/WX    TMP DP  RH WIND       PRES   REMARKS
JACKSON        CLOUDY    62  52  69 SE6       29.80F
LAMBERTVILLE   CLOUDY    67  54  61 SE3       29.82F
LANSING        LGT RAIN  58  54  86 CALM      29.81F
LAPEER         CLOUDY    63  53  68 S3        29.84F
MASON          CLOUDY    61  54  77 CALM      29.81F
MT. CLEMENS    PTSUNNY   64  59  83 SE12      29.84F
PONTIAC        CLOUDY    63  55  75 SE9       29.83F
PORT HOPE        N/A     61  55  81 SE3       29.83F
PORT HURON     CLOUDY    66  55  68 SE8       29.86F
TRI CITIES     LGT RAIN  59  59 100 NE10      29.83F FOG
MIDLAND        LGT RAIN  57  57  99 NE6       29.82F
TROY           CLOUDY    66  54  64 S10       29.87S
SAGINAW HB     CLOUDY    61  55  82 N3        29.81F
$$
MIZ043>046-050>051-056>058-064>065-071>073-077>080-231600-
SOUTHWEST LOWER MICHIGAN

CITY           SKY/WX    TMP DP  RH WIND       PRES   REMARKS
BATTLE CREEK   LGT RAIN  59  58  96 SE6       29.78F
BENTON HARBOR  HVY RAIN  54  51  90 NE7       29.79F FOG
BIG RAPIDS     MIX PCPN  50  49  94 N5        29.83F
COLDWATER      LGT RAIN  60  56  84 SE8       29.78F
FREMONT        HVY RAIN  51  51 100 N8        29.81F
HOLLAND        RAIN      53  51  93 VRB6      29.81F FOG
GRAND RAPIDS   HVY RAIN  54  54 100 N9        29.78F FOG
IONIA          RAIN      56  56 100 NE6       29.79F
KALAMAZOO      LGT RAIN  59  55  87 CALM      29.78F FOG
LUDINGTON      LGT RAIN  50  49  97 NE3       29.84F
MARSHALL       LGT RAIN  58  58  98 E5        29.78F
MOUNT PLEASANT RAIN      55  53  94 N7        29.82F
MUSKEGON       RAIN      52  51  97 NE7       29.83F FOG
SOUTH HAVEN    RAIN      53  52  95 N7        29.80F
$$
MIZ016>042-231600-
NORTHERN LOWER MICHIGAN

CITY           SKY/WX    TMP DP  RH WIND       PRES   REMARKS
ALPENA         LGT RAIN  52  52 100 NE7       29.88F
BEAVER ISLAND  CLOUDY    51  51 100 CALM      29.87F
BELLAIRE       LGT RAIN  50  49  95 CALM      29.88F
CADILLAC       RAIN      50  46  87 N3        29.86
CHARLEVOIX     LGT RAIN  51  51 100 CALM      29.90F
FRANKFORT      CLOUDY    52  52 100 CALM      29.86F
GAYLORD        RAIN      47  45  93 E3        29.88F FOG
GRAYLING       RAIN      48  46  93 NE3       29.89F
HARBOR SPRINGS RAIN      49  47  95 E3        29.88F
HOUGHTON LAKE  RAIN      49  47  93 N8        29.87F FOG
MANISTEE       LGT RAIN  51  50  96 E7        29.85F
OSCODA         CLOUDY    55  54  96 N8        29.85F
PELLSTON       LGT RAIN  50  49  96 SE3       29.89F FOG
ROGERS CITY    LGT RAIN  51  50  95 NE7       29.89F
TRAVERSE CITY  LGT RAIN  52  49  89 CALM      29.85F
$$
MIZ007>008-015-231600-
EASTERN UPPER MICHIGAN

CITY           SKY/WX    TMP DP  RH WIND       PRES   REMARKS
KINROSS        CLOUDY    48  48 100 SE6       29.88F
MACKINAC ISLAN LGT RAIN  50  50 100 CALM      29.88F
NEWBERRY       CLOUDY    47  47  97 CALM      29.88S
S. S. MARIE    CLOUDY    51  49  92 CALM      29.88F
MUNISING         N/A     45  45 100 S6        29.84F
$$
MIZ004>006-011>014-085-231600-
CENTRAL UPPER MICHIGAN

CITY           SKY/WX    TMP DP  RH WIND       PRES   REMARKS
MANISTIQUE     CLOUDY    42  37  82 CALM      29.86F
ESCANABA       FOG       44  44 100 CALM      29.86F VSB 1/4
MENOMINEE      FOG       45  45 100 CALM      29.86F VSB 1/4
SAWYER-GWINN   MOSUNNY   41  41 100 S8        29.83F
$$
MIZ001>003-009>011-084-231600-
WESTERN UPPER MICHIGAN

CITY           SKY/WX    TMP DP  RH WIND       PRES   REMARKS
IRON MOUNTAIN  CLOUDY    42  40  92 VRB3      29.82F
HOUGHTON       PTSUNNY   50  39  66 SE8       29.75F
COPPER HARBOR    N/A     55  44  66 VRB7      29.76F
IRONWOOD       CLOUDY    51  38  60 SW10      29.73S
$$

ABBREVIATIONS USED IN REMARKS
   TC - TEMPERATURE IN CELSIUS
  WCI - WIND CHILL INDEX
   HX - HEAT INDEX
  VSB - VISIBILITY





USA.gov is the U.S. government's official web portal to all federal, state and local government web resources and services.